(267974) = 2004 FU115

Discovered at Socorro on 2004-03-23 by LINEAR.

Orbit

Orbit type: Main Belt

Note: WebGL enabled browser required.

epoch2023-09-13.0
epoch JD2460200.5
perihelion date2022-07-12.20894
perihelion JD2459772.70894
argument of perihelion (°)158.27902
ascending node (°)61.30716
inclination (°)6.88179
eccentricity0.2285185
perihelion distance (AU)1.8186622
Tisserand w.r.t. Jupiter3.5
ΔV w.r.t. Earth (km/sec)8.6
semimajor axis (AU)2.3573634
mean anomaly (°)116.49190
mean daily motion (°/day)0.27231030
aphelion distance (AU)2.896
period (years)3.62
P-vector [x]-0.76832805
P-vector [y]-0.60346821
P-vector [z]-0.21330290
Q-vector [x]0.63136703
Q-vector [y]-0.65984686
Q-vector [z]-0.40740372
absolute magnitude16.79
phase slope0.15
uncertainty0
referenceMPEC 2023-W85
observations used629
oppositions12
arc length (days)7232
first opposition used2004
last opposition used2023
residual rms (arc-secs)0.70
perturbers coarse indicatorM-v
perturbers precise indicator003Ek
first observation date used2004-01-23.0
last observation date used2023-11-11.0
computer nameMPCLINUX
JD of orbit computation2456670.655388
perihelion JD uncertainty (days)1.6162E-04
argument of perihelion uncertainty (°)6.6631E-05
ascending node uncertainty (°)6.1193E-05
inclination uncertainty (°)8.7269E-06
eccentricity uncertainty 2.4986E-07
perihelion distance uncertainty (AU)6.0381E-07
Minimum Orbit Intersection Distances (in AU)
for orbit epoch: 2460200.5, reference: E2023-W85
Mercury1.36883
Venus1.09552
Earth0.81148
Mars0.24086
Jupiter2.07625
Saturn6.26072
Uranus16.3125
Neptune26.9473

Observations

639 total observations over interval: 2004 01 23.40959 – 2023 11 11.299780
These data are available for download (format description).

Date (UT) J2000 RA J2000 Dec Magn Location Ref
2004 01 23.40959 12 47 25.47 +05 33 41.3 20.2   704 – Lincoln Laboratory ETS, New Mexico MPS 105176
2004 01 23.42216 12 47 26.17 +05 33 40.0 20.1   704 – Lincoln Laboratory ETS, New Mexico MPS 105176
2004 01 23.43591 12 47 27.00 +05 33 39.4 20.3   704 – Lincoln Laboratory ETS, New Mexico MPS 105176
2004 01 23.44886 12 47 27.57 +05 33 36.6 20.2   704 – Lincoln Laboratory ETS, New Mexico MPS 105176
2004 01 29.39549 12 52 37.77 +05 25 16.8 19.2 C 704 – Lincoln Laboratory ETS, New Mexico MPS 294408
2004 01 29.42025 12 52 38.72 +05 25 18.4 18.0 C 704 – Lincoln Laboratory ETS, New Mexico MPS 294408
2004 01 29.43234 12 52 39.33 +05 25 16.7 19.0 C 704 – Lincoln Laboratory ETS, New Mexico MPS 294408
2004 01 29.44449 12 52 39.92 +05 25 15.2 19.7 C 704 – Lincoln Laboratory ETS, New Mexico MPS 294408
2004 03 15.31613 12 56 01.41 +07 17 14.7 18.6   704 – Lincoln Laboratory ETS, New Mexico MPS 105176
2004 03 15.32693 12 56 00.92 +07 17 17.6 18.7   704 – Lincoln Laboratory ETS, New Mexico MPS 105176
2004 03 15.33762 12 56 00.40 +07 17 20.1 18.7   704 – Lincoln Laboratory ETS, New Mexico MPS 105176
2004 03 15.34838 12 56 00.01 +07 17 23.4 18.7   704 – Lincoln Laboratory ETS, New Mexico MPS 105176
2004 03 15.35939 12 55 59.47 +07 17 25.7 18.8   704 – Lincoln Laboratory ETS, New Mexico MPS 105176
2004 03 21.32623 12 51 25.38 +07 41 32.8 18.3 R 699 – Lowell Observatory-LONEOS MPS 105176
2004 03 21.35157 12 51 24.07 +07 41 38.4   699 – Lowell Observatory-LONEOS MPS 105176
2004 03 21.37683 12 51 22.71 +07 41 44.0   699 – Lowell Observatory-LONEOS MPS 105176
2004 03 21.40214 12 51 21.31 +07 41 49.5   699 – Lowell Observatory-LONEOS MPS 105176
2004 03 23.33523 12 49 42.62 +07 48 53.7 18.6   704 – Lincoln Laboratory ETS, New Mexico MPS 104042
2004 03 23.34566 12 49 42.03 +07 48 55.7 18.5   704 – Lincoln Laboratory ETS, New Mexico MPS 104042
2004 03 23.35622 12 49 41.45 +07 48 58.2 18.6   704 – Lincoln Laboratory ETS, New Mexico MPS 104042
2004 03 23.36683 12 49 40.87 +07 49 00.2 18.7   704 – Lincoln Laboratory ETS, New Mexico MPS 104042
2004 03 23.37743 12 49 40.26 +07 49 02.7 18.6   704 – Lincoln Laboratory ETS, New Mexico MPS 104042
2004 03 28.34838 12 45 10.47 +08 04 35.4 18.3 V 703 – Catalina Sky Survey MPS 104043
2004 03 28.36214 12 45 09.63 +08 04 37.5 18.8 V 703 – Catalina Sky Survey MPS 104043
2004 03 28.37588 12 45 08.84 +08 04 39.8 18.5 V 703 – Catalina Sky Survey MPS 104043
2004 03 28.38980 12 45 08.02 +08 04 42.4 18.3 V 703 – Catalina Sky Survey MPS 104043
2004 04 02.43279 12 40 22.43 +08 15 38.2 19.5   608 – Haleakala-AMOS MPS 105176
2004 04 02.44319 12 40 21.78 +08 15 38.3 19.4   608 – Haleakala-AMOS MPS 105176
2004 04 02.45374 12 40 21.13 +08 15 40.4 19.1   608 – Haleakala-AMOS MPS 105176
2004 04 03.42156 12 39 26.17 +08 17 05.7 19.8   608 – Haleakala-AMOS MPS 468543
2004 04 03.43192 12 39 25.53 +08 17 06.9 19.6   608 – Haleakala-AMOS MPS 468543
2004 04 03.44268 12 39 24.82 +08 17 07.7 19.8   608 – Haleakala-AMOS MPS 468543
2004 04 15.24187 12 28 52.90 +08 15 01.7 18.3   704 – Lincoln Laboratory ETS, New Mexico MPS 105176
2004 04 15.25297 12 28 52.31 +08 15 00.2 18.8   704 – Lincoln Laboratory ETS, New Mexico MPS 105176
2004 04 15.26410 12 28 51.76 +08 14 59.0 18.8   704 – Lincoln Laboratory ETS, New Mexico MPS 105176
2004 04 15.28632 12 28 50.64 +08 14 57.2 18.9   704 – Lincoln Laboratory ETS, New Mexico MPS 105176
2004 04 21.28432 12 24 29.25 +07 58 45.6 18.5 R 703 – Catalina Sky Survey MPS 105176
2004 04 21.29348 12 24 28.83 +07 58 44.1 18.3 R 703 – Catalina Sky Survey MPS 105176
2004 04 21.30273 12 24 28.53 +07 58 41.8 17.7 R 703 – Catalina Sky Survey MPS 105176
2004 04 21.31192 12 24 28.17 +07 58 40.2 17.9 R 703 – Catalina Sky Survey MPS 105176
2004 04 23.24608 12 23 16.93 +07 51 11.5 18.3   704 – Lincoln Laboratory ETS, New Mexico MPS 105176
2004 04 23.25656 12 23 16.45 +07 51 08.8 19.4   704 – Lincoln Laboratory ETS, New Mexico MPS 105176
2004 04 23.26708 12 23 16.07 +07 51 06.4 19.2   704 – Lincoln Laboratory ETS, New Mexico MPS 105176
2004 04 23.27766 12 23 15.70 +07 51 02.5 19.0   704 – Lincoln Laboratory ETS, New Mexico MPS 105176
2004 04 23.28812 12 23 15.27 +07 51 00.2 18.7   704 – Lincoln Laboratory ETS, New Mexico MPS 105176
2004 05 13.20455 12 18 25.56 +05 37 02.9 19.0   704 – Lincoln Laboratory ETS, New Mexico MPS 106782
2004 05 13.21433 12 18 25.59 +05 36 57.0 19.7   704 – Lincoln Laboratory ETS, New Mexico MPS 106782
2004 05 13.22417 12 18 25.64 +05 36 51.7 19.1   704 – Lincoln Laboratory ETS, New Mexico MPS 106782
2004 05 13.23389 12 18 25.71 +05 36 46.4 19.3   704 – Lincoln Laboratory ETS, New Mexico MPS 106782
2004 05 13.24361 12 18 25.70 +05 36 40.9 19.3   704 – Lincoln Laboratory ETS, New Mexico MPS 106782
2004 05 18.23236 12 19 26.13 +04 49 23.9 19.4   704 – Lincoln Laboratory ETS, New Mexico MPS 107404
2004 05 18.24180 12 19 26.18 +04 49 19.2 19.7   704 – Lincoln Laboratory ETS, New Mexico MPS 107404
2004 05 18.25121 12 19 26.34 +04 49 11.2 19.4   704 – Lincoln Laboratory ETS, New Mexico MPS 107404
2004 05 18.26055 12 19 26.46 +04 49 07.7 20.1   704 – Lincoln Laboratory ETS, New Mexico MPS 107404
2004 05 18.26990 12 19 26.67 +04 49 00.9 19.4   704 – Lincoln Laboratory ETS, New Mexico MPS 107404
2004 05 22.21428 12 20 51.43 +04 08 29.5 19.7   704 – Lincoln Laboratory ETS, New Mexico MPS 108128
2004 05 22.22310 12 20 51.72 +04 08 24.5 19.5   704 – Lincoln Laboratory ETS, New Mexico MPS 108128
2004 05 22.23227 12 20 51.88 +04 08 18.5 19.9   704 – Lincoln Laboratory ETS, New Mexico MPS 108128
2004 05 22.24134 12 20 52.08 +04 08 12.5 19.5   704 – Lincoln Laboratory ETS, New Mexico MPS 108128
2004 05 23.16174 12 21 16.67 +03 58 22.9 18.7 R 699 – Lowell Observatory-LONEOS MPS 108128
2004 05 23.18695 12 21 17.33 +03 58 07.4   699 – Lowell Observatory-LONEOS MPS 108128
2004 05 23.22755 12 21 18.31 +03 57 41.0   699 – Lowell Observatory-LONEOS MPS 108128
2004 05 23.25284 12 21 18.89 +03 57 23.7   699 – Lowell Observatory-LONEOS MPS 108128
2006 11 17.44798 06 26 57.18 +26 48 19.0 21.1 V 691 – Steward Observatory, Kitt Peak-Spacewatch MPS 195512
2006 11 17.46536 06 26 56.66 +26 48 22.3 21.6 V 691 – Steward Observatory, Kitt Peak-Spacewatch MPS 195512
2006 11 17.48273 06 26 56.13 +26 48 26.2 21.4 V 691 – Steward Observatory, Kitt Peak-Spacewatch MPS 195512
2006 11 20.448876 06 25 21.656 +26 58 28.01 21.13 V 645 – Apache Point-Sloan Digital Sky Survey MPS 390485
2006 11 20.452348 06 25 21.521 +26 58 28.65 22.13   645 – Apache Point-Sloan Digital Sky Survey MPS 390485
2007 01 08.08966 05 34 09.12 +28 56 56.4 21.6 V 691 – Steward Observatory, Kitt Peak-Spacewatch MPS 195512
2007 01 08.11046 05 34 07.78 +28 56 57.4 21.0 V 691 – Steward Observatory, Kitt Peak-Spacewatch MPS 195512
2007 01 08.13127 05 34 06.45 +28 56 58.3 21.0 V 691 – Steward Observatory, Kitt Peak-Spacewatch MPS 195512
2009 09 17.46544 02 59 06.86 +11 56 35.4 20.0 V G96 – Mt. Lemmon Survey MPS 294977
2009 09 17.47257 02 59 06.57 +11 56 33.6 21.1 V G96 – Mt. Lemmon Survey MPS 294977
2009 09 17.47964 02 59 06.46 +11 56 33.2 20.8 V G96 – Mt. Lemmon Survey MPS 294977
2009 09 17.48681 02 59 06.32 +11 56 33.2 20.9 V G96 – Mt. Lemmon Survey MPS 294977
2009 11 19.24036 02 08 22.38 +09 12 00.3 20.9 V G96 – Mt. Lemmon Survey MPS 303260
2009 11 19.24556 02 08 22.16 +09 12 00.2 21.0 V G96 – Mt. Lemmon Survey MPS 303260
2009 11 19.25079 02 08 21.87 +09 11 59.7 20.8 V G96 – Mt. Lemmon Survey MPS 303260
2009 11 19.25599 02 08 21.58 +09 11 59.1 21.1 V G96 – Mt. Lemmon Survey MPS 303260
2011 01 25.35377 09 46 11.92 +25 46 46.1 19.3 V G96 – Mt. Lemmon Survey MPS 366971
2011 01 25.36069 09 46 11.53 +25 46 49.3 19.4 V G96 – Mt. Lemmon Survey MPS 366972
2011 01 25.36772 09 46 11.13 +25 46 52.7 19.4 V G96 – Mt. Lemmon Survey MPS 366972
2011 01 25.37458 09 46 10.77 +25 46 56.1 19.3 V G96 – Mt. Lemmon Survey MPS 366972
2011 01 26.45607 09 45 14.07 +25 55 37.5 19.4 V 703 – Catalina Sky Survey MPS 366972
2011 01 26.46437 09 45 13.78 +25 55 41.7 19.0 V 703 – Catalina Sky Survey MPS 366972
2011 01 26.47273 09 45 13.28 +25 55 45.4 19.2 V 703 – Catalina Sky Survey MPS 366972
2011 01 26.48108 09 45 12.88 +25 55 49.4 19.2 V 703 – Catalina Sky Survey MPS 366972
